Stations météo

réclame
Mon MeteoGroup
London/Heathrow Intl, Grande-Bretagne (3772): Température de l'air & dewpoint: 08.10.2019 19:00:00 - 14.10.2019 19:00:00 (BST)London/Heathrow Intl, Grande-Bretagne (3772): Vitesse du vent & gusts: 08.10.2019 19:00:00 - 14.10.2019 19:00:00 (BST)London/Heathrow Intl, Grande-Bretagne (3772): Direction du vent: 08.10.2019 19:00:00 - 14.10.2019 19:00:00 (BST)London/Heathrow Intl, Grande-Bretagne (3772): reduced air pressure: 08.10.2019 19:00:00 - 14.10.2019 19:00:00 (BST)London/Heathrow Intl, Grande-Bretagne (3772): visibility: 08.10.2019 19:00:00 - 14.10.2019 19:00:00 (BST)London/Heathrow Intl, Grande-Bretagne (3772): Ensoleillement: 08.10.2019 19:00:00 - 14.10.2019 19:00:00 (BST)London/Heathrow Intl, Grande-Bretagne (3772): Quantités de précipitations: 08.10.2019 19:00:00 - 14.10.2019 19:00:00 (BST)
Date & Time tt [°C] td [°C] ff [km/h] ff [knt] fx [km/h] fx [knt] dd ppp [hPa] vv [km] sd [min] rr [mm]
14.10.2019 19:00:00 14,7 14,2 8 4 - - E 1000,5 7 0 0,0
14.10.2019 18:00:00 14,4 13,4 13 7 - - E 1000,8 9 0 0,0
14.10.2019 17:00:00 14,3 12,9 16 9 - - E 1001,6 10 0 0,0
14.10.2019 16:00:00 13,9 12,4 21 11 - - E 1001,8 10 0 0,0
14.10.2019 15:00:00 13,4 11,5 21 11 - - E 1002,7 26 0 0,0
14.10.2019 14:00:00 13,1 11,1 26 14 - - E 1004,1 10 0 0,0
14.10.2019 13:00:00 12,7 10,7 13 7 - - ENE 1005,3 9 0 0,0
14.10.2019 12:00:00 12,9 11,1 13 7 - - ENE 1006,7 35 0 0,0
14.10.2019 11:00:00 12,5 11,1 13 7 - - ENE 1007,7 10 0 0,0
14.10.2019 10:00:00 12,0 11,2 8 4 - - ENE 1008,9 6 0 0,4
14.10.2019 09:00:00 11,8 11,5 9 5 - - E 1009,5 10 0 0,6
14.10.2019 08:00:00 11,4 11,0 9 5 - - E 1009,7 10 0 1,0
14.10.2019 07:00:00 11,2 10,7 5 3 - - NE 1009,8 9 0 0,6
14.10.2019 06:00:00 11,2 10,6 9 5 - - E 1010,0 11 0 0,2
14.10.2019 05:00:00 11,1 10,2 8 4 - - SSE 1010,8 10 0 0,0
14.10.2019 04:00:00 10,6 9,6 5 3 - - ESE 1010,5 10 0 0,0
14.10.2019 03:00:00 10,7 9,5 9 5 - - SE 1010,7 30 0 0,0
14.10.2019 02:00:00 10,9 9,5 9 5 - - S 1011,1 25 0 0,0
14.10.2019 01:00:00 10,3 8,7 9 5 - - S 1011,1 10 - 0,0
14.10.2019 00:00:00 10,9 8,8 8 4 - - S 1011,2 35 0 0,0
13.10.2019 23:00:00 11,1 8,6 9 5 - - SW 1010,8 10 0 0,0
13.10.2019 22:00:00 11,5 8,4 8 4 - - SW 1010,2 10 0 0,0
13.10.2019 21:00:00 12,0 8,4 13 7 - - WSW 1009,4 10 0 0,0
13.10.2019 20:00:00 12,4 8,1 18 10 - - WSW 1008,6 10 0 0,0
13.10.2019 19:00:00 13,1 8,5 22 12 - - WSW 1007,5 10 0 0,0
13.10.2019 18:00:00 14,2 8,7 28 15 46 25 WSW 1006,3 45 36 0,0
13.10.2019 17:00:00 16,1 10,4 31 17 46 25 WSW 1004,8 10 30 0,0
13.10.2019 16:00:00 15,9 12,1 28 15 - - SW 1003,5 10 0 0,0
13.10.2019 15:00:00 15,7 12,9 24 13 - - SW 1002,8 55 0 0,0
13.10.2019 14:00:00 15,7 13,4 22 12 52 28 SW 1001,9 50 0 0,2
13.10.2019 13:00:00 15,9 14,0 31 17 48 26 SW 1001,2 10 0 0,2
13.10.2019 12:00:00 16,6 14,9 26 14 - - SSW 1000,0 8 0 0,8
13.10.2019 11:00:00 17,2 14,2 29 16 - - S 999,5 10 0 0,0
13.10.2019 10:00:00 16,3 14,3 22 12 - - S 999,9 10 0 0,0
13.10.2019 09:00:00 15,6 14,3 16 9 - - S 1000,3 10 0 0,0
13.10.2019 08:00:00 14,2 14,0 15 8 - - SSE 1000,8 16 0 0,0
13.10.2019 07:00:00 12,5 12,5 13 7 - - ESE 1001,4 5 0 0,0
13.10.2019 06:00:00 11,8 11,6 9 5 - - ENE 1002,5 2,7 0 0,2
13.10.2019 05:00:00 11,5 11,4 9 5 - - ENE 1003,5 2,5 0 0,4
13.10.2019 04:00:00 11,4 11,2 8 4 - - ENE 1004,9 2,1 0 0,4
13.10.2019 03:00:00 11,2 11,1 8 4 - - ENE 1005,3 1,8 0 0,2
13.10.2019 02:00:00 11,1 10,9 9 5 - - ENE 1006,1 3,0 0 0,8
13.10.2019 01:00:00 11,0 10,7 5 3 - - - 1006,8 5 - 0,6
13.10.2019 00:00:00 11,0 10,6 11 6 - - E 1007,5 4,7 0 0,8
12.10.2019 23:00:00 11,2 11,0 11 6 - - ESE 1007,8 4,6 0 0,8
12.10.2019 22:00:00 11,3 11,0 9 5 - - SE 1008,2 7 0 1,2
12.10.2019 21:00:00 11,6 11,1 8 4 - - SSE 1008,5 6 0 1,2
12.10.2019 20:00:00 11,6 11,1 9 5 - - S 1008,6 5 0 0,6
12.10.2019 19:00:00 11,8 11,3 11 6 - - SSE 1008,2 11 0 0,4
12.10.2019 18:00:00 12,0 11,4 11 6 - - SSE 1008,0 9 0 0,6
12.10.2019 17:00:00 12,1 11,4 13 7 - - S 1008,5 10 0 1,0
12.10.2019 16:00:00 12,3 11,3 15 8 - - S 1008,8 10 0 0,6
12.10.2019 15:00:00 12,7 11,5 11 6 - - S 1008,8 10 0 0,4
12.10.2019 14:00:00 12,6 11,6 11 6 - - S 1008,7 25 0 0,4
12.10.2019 13:00:00 12,2 11,2 9 5 - - SSW 1009,2 10 0 0,8
12.10.2019 12:00:00 11,9 10,6 15 8 - - WSW 1009,5 10 0 0,4
12.10.2019 11:00:00 11,9 10,8 9 5 - - SSW 1009,2 5 0 0,6
12.10.2019 10:00:00 11,6 10,6 13 7 - - WSW 1008,7 10 0 0,2
12.10.2019 09:00:00 11,5 10,6 13 7 - - SW 1008,5 10 0 0,2
12.10.2019 08:00:00 11,3 9,9 11 6 - - SW 1007,9 10 0 0,0
12.10.2019 07:00:00 11,3 10,2 9 5 - - SW 1007,5 10 0 0,0
12.10.2019 06:00:00 11,1 10,5 9 5 - - SSW 1007,1 10 0 0,0
12.10.2019 05:00:00 11,1 10,5 11 6 - - SSW 1007,0 30 0 0,0
12.10.2019 04:00:00 10,9 10,4 9 5 - - SSW 1006,8 35 0 0,0
12.10.2019 03:00:00 10,7 10,0 13 7 - - W 1007,1 6 0 0,2
12.10.2019 02:00:00 11,0 10,3 15 8 - - WSW 1007,1 9 0 0,2
12.10.2019 01:00:00 11,4 10,2 11 6 - - WSW 1006,9 10 - 0,2
12.10.2019 00:00:00 12,5 10,7 16 9 - - W 1006,6 8 0 0,0
11.10.2019 23:00:00 13,0 11,8 15 8 - - WSW 1006,6 40 0 0,2
11.10.2019 22:00:00 12,7 11,1 16 9 - - WSW 1005,9 10 0 0,8
11.10.2019 21:00:00 12,7 11,2 15 8 - - W 1005,6 5 0 0,8
11.10.2019 20:00:00 13,7 13,2 16 9 55 30 W 1005,6 2,6 0 4,0
11.10.2019 19:00:00 16,5 13,9 26 14 - - SW 1004,6 10 0 0,0
11.10.2019 18:00:00 16,7 13,8 28 15 46 25 SW 1004,7 10 0 0,0
11.10.2019 17:00:00 16,9 13,8 31 17 52 28 SSW 1004,5 30 0 0,0
11.10.2019 16:00:00 16,8 13,9 35 19 50 27 SW 1004,6 10 0 0,0
11.10.2019 15:00:00 16,6 14,2 31 17 50 27 SSW 1004,7 15 0 0,0
11.10.2019 14:00:00 16,6 13,4 34 18 55 30 SW 1005,1 10 0 0,0
11.10.2019 13:00:00 16,7 13,2 34 18 48 26 SW 1005,7 35 0 0,0
11.10.2019 12:00:00 16,0 13,4 26 14 - - SW 1006,2 40 0 0,0
11.10.2019 11:00:00 16,1 14,1 29 16 - - SW 1006,4 10 0 0,2
11.10.2019 10:00:00 15,3 14,3 22 12 - - SSW 1006,6 18 0 0,2
11.10.2019 09:00:00 15,2 13,9 28 15 46 25 SW 1006,7 10 0 0,4
11.10.2019 08:00:00 15,4 13,7 28 15 - - SSW 1006,7 10 0 0,0
11.10.2019 07:00:00 15,4 13,7 26 14 - - SW 1007,0 10 0 0,0
11.10.2019 06:00:00 15,1 13,9 26 14 - - SSW 1007,5 19 0 0,0
11.10.2019 05:00:00 15,0 14,0 22 12 - - SSW 1008,1 14 0 1,4
11.10.2019 04:00:00 15,2 13,8 24 13 - - SW 1008,8 9 0 1,4
11.10.2019 03:00:00 15,7 13,6 28 15 - - SW 1009,2 10 0 0,2
11.10.2019 02:00:00 16,1 13,2 26 14 50 27 SW 1009,4 10 0 0,0
11.10.2019 01:00:00 16,2 13,1 26 14 - - SW 1009,6 10 - 0,0
11.10.2019 00:00:00 16,1 13,1 22 12 - - SW 1010,0 10 0 0,0
10.10.2019 23:00:00 16,2 12,9 31 17 - - SW 1010,3 10 0 0,0
10.10.2019 22:00:00 16,1 12,9 28 15 - - SW 1010,4 10 0 0,0
10.10.2019 21:00:00 15,3 12,9 21 11 - - SW 1010,9 10 0 0,0
10.10.2019 20:00:00 14,7 12,6 26 14 - - SSW 1011,2 10 0 0,0
10.10.2019 19:00:00 15,1 11,0 29 16 - - SSW 1011,5 23 0 0,0
10.10.2019 18:00:00 15,5 10,2 26 14 - - SSW 1011,7 23 6 0,0
10.10.2019 17:00:00 16,3 8,9 29 16 - - SW 1012,0 10 0 0,0
10.10.2019 16:00:00 16,5 7,9 24 13 48 26 WSW 1012,1 10 0 0,0
10.10.2019 15:00:00 17,3 8,8 24 13 - - WSW 1012,4 10 6 0,0
10.10.2019 14:00:00 16,2 8,7 24 13 - - WSW 1012,7 10 12 0,0
10.10.2019 13:00:00 16,0 8,2 29 16 - - WSW 1013,0 10 42 0,0
10.10.2019 12:00:00 15,7 9,1 28 15 - - WSW 1013,2 20 54 0,0
10.10.2019 11:00:00 15,0 9,4 24 13 - - WSW 1013,1 21 54 0,0
10.10.2019 10:00:00 13,5 9,4 26 14 - - WSW 1012,9 10 48 0,0
10.10.2019 09:00:00 10,9 8,5 16 9 - - SW 1012,3 23 6 0,0
10.10.2019 08:00:00 9,6 7,7 18 10 - - WSW 1011,4 26 0 0,0
10.10.2019 07:00:00 9,6 7,8 18 10 - - WSW 1010,9 10 0 0,0
10.10.2019 06:00:00 8,8 7,4 15 8 - - WSW 1010,2 27 0 0,0
10.10.2019 05:00:00 8,8 7,3 16 9 - - WSW 1009,6 28 0 0,0
10.10.2019 04:00:00 8,9 7,4 16 9 - - WSW 1009,1 30 0 0,0
10.10.2019 03:00:00 8,9 7,7 18 10 - - W 1008,6 10 0 0,0
10.10.2019 02:00:00 8,5 7,4 15 8 - - W 1007,9 10 0 0,0
10.10.2019 01:00:00 8,7 7,8 15 8 - - W 1007,7 10 - 0,0
10.10.2019 00:00:00 9,2 7,7 15 8 - - W 1007,1 40 0 0,0
09.10.2019 23:00:00 9,9 7,8 16 9 - - W 1006,5 10 0 0,0
09.10.2019 22:00:00 10,5 7,7 22 12 - - WSW 1006,1 10 0 0,0
09.10.2019 21:00:00 10,6 8,1 21 11 - - WSW 1005,9 10 0 0,0
09.10.2019 20:00:00 11,8 8,2 22 12 - - SW 1005,6 28 0 0,0
09.10.2019 19:00:00 11,6 7,4 15 8 - - SW 1005,6 10 0 0,0
09.10.2019 18:00:00 12,9 6,6 22 12 - - WSW 1005,3 10 0 0,0
09.10.2019 17:00:00 14,1 6,9 29 16 48 26 WSW 1005,3 10 18 0,0
09.10.2019 16:00:00 14,8 8,9 26 14 46 25 WSW 1005,1 10 12 0,2
09.10.2019 15:00:00 15,2 5,9 35 19 50 27 W 1005,0 10 54 0,0
09.10.2019 14:00:00 15,0 6,5 35 19 54 29 WSW 1004,9 30 30 0,0
09.10.2019 13:00:00 14,8 6,6 29 16 50 27 W 1004,5 10 30 0,0
09.10.2019 12:00:00 14,0 7,1 34 18 - - W 1004,5 30 54 0,0
09.10.2019 11:00:00 13,8 8,3 24 13 - - WSW 1004,2 10 42 0,0
09.10.2019 10:00:00 12,7 8,5 24 13 - - WSW 1004,3 10 6 0,0
09.10.2019 09:00:00 11,7 8,4 18 10 - - SW 1004,5 30 0 0,0
09.10.2019 08:00:00 11,3 8,2 16 9 - - WSW 1004,5 27 0 0,0
09.10.2019 07:00:00 11,6 8,4 21 11 - - WSW 1004,5 10 0 0,0
09.10.2019 06:00:00 11,2 8,4 16 9 - - SW 1004,8 10 0 0,0
09.10.2019 05:00:00 11,0 8,1 16 9 - - SW 1005,3 10 0 0,0
09.10.2019 04:00:00 11,0 8,0 18 10 - - SW 1005,5 22 0 0,0
09.10.2019 03:00:00 10,8 7,8 11 6 - - SW 1005,9 10 0 0,0
09.10.2019 02:00:00 11,1 7,7 21 11 - - SW 1006,2 10 0 0,0
09.10.2019 01:00:00 11,0 7,5 18 10 - - WSW 1006,5 10 - 0,0
09.10.2019 00:00:00 11,0 7,7 21 11 - - SW 1006,7 23 0 0,0
08.10.2019 23:00:00 11,4 7,9 21 11 - - SW 1006,6 10 0 0,0
08.10.2019 22:00:00 11,7 8,0 18 10 - - WSW 1006,7 10 0 0,0
08.10.2019 21:00:00 11,9 8,2 18 10 - - SW 1006,2 10 0 0,0
08.10.2019 20:00:00 12,3 8,0 21 11 - - SW 1006,1 26 0 0,0
08.10.2019 19:00:00 13,2 9,0 24 13 - - WSW 1005,7 10 0 0,0

tt = Température de l'air
td = dewpoint
ff = Vitesse du vent
fx = gusts
dd = Direction du vent
ppp = reduced air pressure
vv = visibility
sd = Ensoleillement
rr = Quantités de précipitations

stations d'obs. à proximité